Weather in Us'va

Russia / Perm Krai     58°41′04″N   57°38′28″E
temp.,
°C
wind,
m/s
gust,
m/s
humid.,
%
clouds,
%
prec.,
mm/h
press.,
hPa
HPBL,
m
12 may, wed
wed1223:00+11n227517 0.0 102934
02:00+9n227372 0.0 102919
05:00+8nnw2266100 0.0 103023
08:00+14n134752 0.0 1030276
11:00+19nnw234076 0.0 1029891
14:00+21nw2238100 0.0 10291482
17:00+21nw2338100 0.0 10281463
20:00+17nw2256100 0.0 102829
13 may, thu
thu1323:00+14w116386 0.0 102811
02:00+12w116763 0.0 102810
05:00+11wnw117039 0.0 102810
08:00+16wnw125526 0.0 1028196
11:00+22nw23435 0.0 10281063
14:00+24nw233630 0.0 10271564
17:00+25nw23355 0.0 10261686
20:00+21nw1151100 0.0 102611
14 may, fri
fri1423:00+16sse11585 0.0 102611
02:00+15s226864 0.0 102628
05:00+13ssw117090 0.0 102611
08:00+18ssw245512 0.0 1025214
11:00+23sw46395 0.0 10241376
14:00+26sw573164 0.0 10222295
17:00+25wsw583352 0.0 10222155
20:00+23sw4104452 0.0 1020566
15 may, sat
sat1523:00+18sw31458100 0.0 1020420
02:00+16sw297175 0.0 1020205
05:00+14ssw228448 0.1 102126
08:00+19sw2669100 0.0 1021367
11:00+22sw4749100 0.0 1020955
14:00+26wsw6103294 0.0 10192177
17:00+27wsw5933100 0.0 10182575
20:00+23wsw41045100 0.0 1017596
16 may, sun
sun1623:00+19sw312565 0.0 1018327
02:00+15ssw237273 0.0 101859
05:00+14sw3126922 0.0 1018258
08:00+19sw4105115 0.0 1018437
11:00+25wsw5103392 0.0 10171302
14:00+28wsw69246 0.0 10162409
17:00+28wsw59255 0.0 10152990
20:00+24sw5113696 0.0 10141066